Temperature
6 6 6 5 5 5 5 4 4 4 4 4 4 5 4 4 4 4 4 4 4 4 4 4 4 4 4 4 4 4 4 4 4 4 3 3 3 3
5 5 5 5 5 5 4 4 4 3 3 3 4 4 4 4 4 4 4 4 4 4 4 4 4 3 3 3 3 3 3 3 3 3 3 3 3 3
5 5 5 5 4 4 4 4 3 3 3 3 3 3 3 3 3 3 3 3 3 3 3 3 3 3 3 3 3 3 3 3 3 3 3 3 3 3
4 4 4 4 4 4 3 3 3 3 3 3 3 3 3 3 3 3 3 3 3 3 3 3 3 3 3 2 2 2 2 2 2 2 2 2 2 2
4 4 4 4 3 3 3 3 3 3 2 2 2 2 2 2 2 2 2 2 2 2 2 2 2 2 2 2 2 2 2 2 2 2 2 2 2 2
3 3 3 3 3 3 3 2 2 2 2 2 2 2 2 2 2 2 2 2 2 2 2 2 2 2 1 1 1 1 1 1 1 1 1 1 1 1
3 3 3 3 2 2 2 2 2 2 2 2 2 2 1 1 1 1 1 1 1 1 1 1 1 1 1 1 1 1 1 1 1 1 1 1 1 1
2 2 2 2 2 2 2 2 2 2 1 1 1 1 1 1 1 0 0 0 0 1 1 1 1 1 1 1 1 0 0 0 0 0 0 0 0 0
2 2 2 2 1 1 1 1 1 1 1 1 1 1 1 0 0 0 0 0 -0 0 -0 0 0 0 0 0 -0 -0 -0 -0 -0 -1 -1 -1 -1 -0
1 1 1 1 1 1 1 1 1 1 1 1 1 1 0 0 0 -0 -0 -0 -0 -0 -1 -1 -0 -0 -0 -0 -0 -1 -1 -1 -1 -1 -1 -1 -1 -1
1 1 1 1 1 1 0 1 1 0 0 0 0 0 -0 -0 -0 -0 -1 -1 -1 -1 -1 -1 -1 -1 -0 -0 -1 -1 -1 -1 -1 -1 -1 -1 -1 -1
0 0 0 0 0 0 0 0 0 0 0 0 -0 -0 -0 -1 -1 -1 -1 -1 -2 -2 -2 -2 -2 -2 -2 -1 -1 -1 -1 -2 -2 -2 -2 -2 -2 -2
0 0 0 -0 -0 -0 -0 -0 -0 -0 -0 -0 -1 -1 -1 -1 -1 -1 -1 -2 -2 -2 -2 -2 -2 -2 -3 -2 -2 -2 -2 -2 -2 -2 -2 -2 -2 -2
-0 -0 -0 -0 -1 -1 -1 -1 -1 -1 -1 -1 -1 -1 -1 -1 -1 -2 -2 -2 -2 -2 -2 -3 -3 -3 -3 -3 -3 -2 -2 -2 -2 -2 -2 -2 -2 -2
-1 -1 -1 -1 -1 -1 -1 -1 -1 -1 -1 -1 -1 -1 -1 -2 -2 -2 -2 -2 -2 -3 -3 -3 -3 -3 -3 -3 -3 -3 -3 -3 -3 -3 -3 -3 -3 -2
-1 -1 -1 -1 -2 -2 -2 -2 -2 -2 -2 -2 -2 -2 -2 -2 -2 -2 -2 -3 -3 -3 -3 -3 -3 -3 -3 -3 -4 -4 -4 -4 -3 -3 -3 -3 -3 -3
-2 -2 -2 -2 -2 -2 -2 -2 -2 -2 -2 -2 -2 -2 -2 -3 -3 -3 -3 -3 -3 -3 -3 -3 -3 -4 -4 -4 -4 -4 -4 -4 -4 -4 -4 -3 -3 -3
-2 -2 -2 -2 -3 -3 -3 -2 -3 -2 -2 -2 -2 -3 -3 -3 -3 -3 -3 -3 -3 -3 -4 -4 -4 -4 -4 -4 -4 -4 -4 -4 -4 -4 -4 -4 -4 -4
-3 -3 -3 -3 -3 -3 -3 -3 -3 -3 -3 -3 -3 -3 -3 -3 -3 -3 -4 -4 -4 -4 -4 -4 -4 -4 -5 -4 -4 -4 -4 -4 -4 -4 -4 -4 -4 -4
-3 -3 -3 -3 -3 -3 -3 -4 -3 -3 -3 -3 -3 -3 -4 -4 -4 -4 -4 -4 -4 -4 -4 -4 -4 -5 -5 -5 -5 -5 -5 -5 -5 -5 -5 -5 -5 -4
-4 -4 -4 -4 -4 -4 -4 -4 -4 -4 -4 -4 -4 -4 -4 -4 -4 -4 -4 -4 -5 -5 -5 -4 -5 -5 -5 -5 -5 -5 -5 -5 -5 -5 -5 -5 -5 -5
-4 -4 -4 -4 -4 -4 -4 -4 -4 -4 -4 -4 -4 -4 -4 -4 -4 -4 -5 -5 -5 -5 -5 -5 -5 -5 -5 -6 -5 -5 -5 -5 -5 -5 -6 -6 -6 -6
-4 -5 -5 -5 -5 -4 -4 -4 -4 -5 -4 -4 -4 -4 -4 -5 -5 -5 -5 -5 -5 -5 -5 -5 -6 -6 -6 -6 -6 -6 -5 -5 -5 -5 -5 -6 -6 -6
Wind_Speed
3 3 3 2 2 2 2 3 3 2 3 3 2 2 3 4 5 5 6 8 9 9 9 9 8 8 8 9 9 9 10 10 9 9 9 10 11 11
3 3 3 2 2 2 2 2 2 3 3 2 2 2 3 5 6 6 6 8 8 8 8 8 8 8 8 8 8 9 10 9 8 8 9 10 11 11
3 4 4 3 3 3 2 2 2 2 4 3 2 2 2 3 5 6 6 6 6 8 8 8 8 8 8 8 8 9 9 9 8 8 9 10 11 11
4 4 5 4 4 3 3 3 2 2 3 3 2 2 2 2 3 4 5 6 6 7 8 8 8 8 8 8 8 8 8 8 8 8 9 10 11 11
5 5 5 5 4 3 4 3 3 2 2 3 3 2 2 2 2 3 3 3 5 7 7 7 8 8 8 8 8 8 8 8 8 8 9 10 11 11
5 5 5 6 6 5 4 4 3 2 2 2 2 2 2 2 1 2 4 3 4 4 6 6 7 8 8 8 8 7 7 8 8 9 9 10 11 12
4 4 4 5 5 5 4 4 4 3 2 2 2 2 2 2 2 2 3 4 3 2 3 4 5 4 6 7 7 7 7 8 8 9 9 10 10 11
4 3 3 4 4 5 5 5 4 4 4 3 3 3 4 3 2 2 2 3 3 2 2 4 3 3 4 5 7 7 7 8 8 9 9 10 10 11
4 3 3 3 3 3 4 5 5 6 5 4 4 5 4 3 3 3 3 3 4 3 2 4 2 3 4 6 7 7 7 7 8 8 9 10 11 12
4 4 4 4 4 4 3 4 4 4 5 4 5 5 4 4 4 4 4 3 3 2 1 3 3 3 5 6 7 7 6 7 8 8 9 11 11 11
3 4 4 4 5 4 3 4 3 3 4 5 5 5 4 3 2 0 0 1 3 2 1 1 2 3 3 3 5 6 6 7 8 9 10 11 12 11
3 4 5 5 5 5 4 4 4 4 2 2 2 2 2 3 3 2 3 2 2 2 2 1 1 2 2 2 3 4 5 7 9 10 10 11 11 7
3 3 4 6 6 6 5 4 5 4 2 2 2 1 1 2 2 3 3 3 2 3 2 1 1 1 1 3 3 3 4 4 5 7 10 11 11 8
4 3 4 6 6 5 4 4 4 2 2 2 2 2 2 2 2 3 3 3 3 4 4 2 1 2 2 3 3 3 3 4 4 5 6 9 10 10
4 5 4 5 4 4 4 4 3 2 2 2 3 3 3 2 2 1 1 1 1 2 3 3 2 2 2 3 3 3 3 3 3 4 5 5 5 6
2 3 4 3 3 3 3 3 2 3 3 3 3 2 1 1 2 2 1 1 1 1 2 2 3 2 2 3 3 4 3 3 3 4 5 5 6 5
2 1 1 1 2 2 2 2 2 2 2 2 2 2 2 2 2 1 1 1 1 1 2 2 2 2 3 3 3 4 4 3 3 4 4 5 5 5
2 2 2 3 3 3 2 2 2 2 2 2 2 2 2 2 2 1 1 1 1 2 2 1 1 2 2 2 4 3 3 3 3 4 3 4 5 5
2 3 3 3 3 3 3 3 3 3 3 3 3 3 2 2 2 2 2 1 2 2 2 1 1 1 2 3 3 3 2 3 3 4 3 3 5 6
2 3 3 3 3 3 3 3 3 2 3 3 3 3 3 3 3 3 3 2 2 2 2 2 2 2 3 3 3 3 4 3 3 4 4 4 5 8
3 3 3 3 3 3 3 3 3 3 3 3 3 3 3 3 3 3 3 3 2 2 3 3 3 3 1 1 2 3 3 4 4 3 4 4 5 4
3 3 3 3 3 3 3 3 3 3 3 3 3 3 3 3 3 4 3 3 3 3 2 2 1 1 1 2 3 3 4 4 5 6 6 5 3 2
3 3 3 3 3 3 3 3 3 3 3 3 3 3 3 3 3 3 3 3 2 2 1 1 1 1 1 2 2 3 4 4 4 4 4 6 7 9
Wind_Direction
196 201 203 204 192 186 174 177 186 237 261 255 266 273 297 301 305 310 309 309 314 317 316 314 314 315 318 322 325 324 319 314 309 309 308 309 310 312
203 200 206 208 197 190 183 185 196 204 239 243 250 281 289 301 305 310 310 312 312 316 316 318 319 318 320 322 327 330 326 322 310 309 308 313 315 310
210 206 212 206 204 199 187 190 201 199 236 270 263 284 282 301 314 315 312 312 312 317 318 319 319 319 319 323 326 328 332 337 329 319 319 321 320 317
216 209 218 208 205 203 198 202 209 209 215 254 272 270 266 285 304 308 313 313 306 313 319 320 319 320 319 319 322 325 327 332 336 335 333 329 326 322
213 211 216 203 211 212 207 207 212 220 212 222 257 258 267 289 305 308 309 310 310 314 319 321 322 321 318 319 320 324 325 328 329 329 327 324 323 323
218 217 214 207 211 209 211 211 207 216 222 223 247 261 268 280 284 308 318 318 311 319 324 321 321 322 321 319 317 319 323 325 323 323 325 325 322 320
220 224 224 218 223 219 219 208 199 209 215 228 251 269 275 283 281 287 301 314 304 309 323 319 318 317 317 315 313 316 319 319 320 321 321 323 325 327
221 229 231 227 234 238 243 230 213 210 215 223 247 252 262 254 261 279 294 315 297 301 321 305 308 305 305 305 310 317 319 320 322 323 323 326 326 328
217 221 233 236 228 225 242 240 237 238 228 216 231 242 247 239 249 265 263 270 271 276 306 286 299 296 298 307 311 317 323 325 327 327 328 328 328 327
218 218 221 225 222 219 221 228 236 242 245 234 228 235 238 233 229 240 248 277 289 273 253 273 290 291 303 304 308 316 328 335 335 332 330 329 328 328
229 225 223 222 234 231 218 226 245 262 273 262 263 262 260 253 235 182 262 296 293 274 228 257 285 304 297 292 308 316 322 332 334 335 333 331 331 330
234 234 233 230 233 230 214 216 236 252 249 269 270 265 258 236 226 210 206 233 274 269 235 239 269 326 310 295 306 325 329 329 332 334 334 333 333 334
229 235 233 236 236 233 225 221 235 239 222 224 226 234 241 239 239 237 221 214 237 253 233 216 267 284 271 299 306 306 317 320 325 328 331 332 334 335
229 233 235 236 237 236 232 236 241 235 198 208 215 233 240 245 254 251 247 246 245 248 235 224 240 254 282 295 295 311 317 315 320 323 327 330 332 332
233 236 238 233 227 229 234 233 226 205 195 207 222 239 241 235 232 244 250 274 299 273 234 238 234 250 249 262 282 300 314 311 316 325 325 324 321 325
243 233 229 220 223 231 231 229 222 210 205 211 219 228 220 211 215 215 214 207 289 307 290 258 239 233 254 261 265 284 290 293 314 319 317 315 316 314
233 205 189 204 221 227 231 227 222 217 220 209 202 208 213 212 226 218 201 200 232 263 294 316 319 284 252 245 264 272 283 290 290 307 317 318 313 313
214 205 214 219 223 223 229 236 234 233 223 213 206 210 215 218 231 231 219 224 249 263 273 289 329 341 330 284 242 262 281 287 302 307 308 313 315 318
220 214 219 225 228 226 227 228 236 243 230 212 215 214 212 219 224 226 229 251 258 257 260 251 264 298 305 304 299 258 272 302 313 311 305 299 301 308
230 222 225 226 225 228 229 231 235 237 234 220 214 210 208 213 221 226 226 233 247 256 260 247 233 235 240 261 273 286 290 289 296 303 309 305 296 298
233 228 228 229 233 234 233 231 229 233 235 225 214 209 210 214 225 226 225 236 238 239 249 255 258 270 268 278 290 295 295 294 289 287 303 307 311 319
227 228 231 233 233 234 236 234 233 234 234 227 219 215 213 215 220 219 216 221 231 240 253 267 271 282 249 252 271 287 302 313 317 309 290 272 285 300
228 227 230 233 234 234 231 232 233 233 231 232 224 215 210 217 218 214 215 218 223 230 238 257 283 288 269 259 268 281 294 309 321 329 320 312 297 287
Height
1497 1498 1498 1499 1499 1500 1500 1501 1502 1500 1500 1500 1501 1501 1501 1500 1500 1499 1498 1497 1495 1494 1493 1492 1490 1489 1488 1486 1485 1483 1482 1480 1479 1477 1477 1476 1474 1473
1493 1494 1495 1495 1496 1496 1497 1497 1498 1498 1497 1496 1497 1497 1497 1497 1496 1495 1494 1493 1491 1490 1489 1488 1487 1485 1484 1482 1481 1479 1477 1475 1474 1473 1473 1471 1470 1469
1489 1490 1491 1492 1492 1493 1493 1493 1494 1494 1493 1492 1493 1493 1493 1493 1492 1491 1490 1489 1488 1487 1486 1484 1483 1482 1480 1479 1477 1476 1474 1472 1471 1470 1469 1467 1465 1463
1485 1486 1486 1487 1488 1489 1489 1489 1490 1490 1490 1488 1489 1489 1489 1488 1488 1487 1486 1485 1484 1483 1482 1481 1479 1478 1477 1475 1474 1472 1470 1469 1467 1466 1464 1462 1461 1459
1480 1481 1482 1483 1483 1484 1485 1485 1485 1486 1486 1485 1485 1485 1485 1485 1484 1483 1483 1481 1480 1479 1478 1477 1476 1474 1473 1471 1470 1468 1467 1465 1464 1463 1461 1459 1457 1455
1476 1477 1477 1478 1479 1480 1480 1481 1481 1482 1482 1482 1481 1481 1481 1481 1480 1479 1478 1477 1476 1475 1474 1473 1472 1471 1469 1468 1466 1465 1463 1462 1461 1459 1457 1455 1453 1451
1471 1472 1473 1474 1475 1476 1476 1477 1477 1478 1478 1478 1477 1477 1477 1476 1476 1475 1474 1473 1472 1471 1470 1469 1468 1467 1466 1464 1463 1461 1460 1458 1457 1455 1453 1451 1449 1447
1466 1467 1468 1469 1470 1471 1472 1473 1474 1474 1474 1474 1473 1473 1473 1473 1473 1472 1471 1469 1467 1468 1466 1465 1465 1463 1462 1461 1459 1458 1456 1455 1453 1451 1450 1447 1445 1443
1462 1463 1464 1465 1466 1467 1468 1469 1469 1470 1470 1470 1470 1469 1469 1469 1469 1468 1467 1466 1465 1464 1463 1461 1461 1459 1458 1457 1456 1454 1453 1451 1450 1448 1446 1444 1442 1440
1458 1459 1460 1461 1462 1463 1464 1464 1465 1466 1466 1466 1466 1466 1466 1466 1465 1465 1464 1463 1462 1461 1460 1458 1456 1456 1455 1454 1452 1451 1450 1448 1446 1445 1443 1441 1439 1436
1454 1456 1457 1457 1459 1460 1460 1461 1461 1461 1462 1462 1462 1462 1462 1462 1461 1461 1460 1459 1457 1457 1457 1455 1453 1452 1451 1450 1449 1448 1447 1445 1443 1441 1439 1437 1435 1433
1451 1452 1453 1454 1455 1455 1456 1456 1457 1457 1458 1458 1458 1458 1458 1457 1457 1457 1456 1455 1454 1454 1453 1452 1451 1450 1448 1446 1446 1445 1443 1442 1440 1438 1436 1434 1432 1429
1447 1448 1448 1449 1450 1451 1452 1452 1453 1453 1453 1453 1453 1454 1453 1453 1453 1453 1453 1452 1452 1451 1451 1450 1448 1448 1447 1444 1442 1442 1441 1439 1437 1435 1433 1431 1429 1427
1443 1444 1444 1445 1446 1446 1447 1448 1449 1449 1449 1449 1449 1449 1449 1449 1449 1449 1449 1449 1449 1449 1448 1448 1446 1445 1444 1442 1440 1438 1438 1436 1434 1432 1430 1428 1427 1425
1439 1440 1440 1441 1441 1442 1442 1443 1444 1444 1444 1444 1444 1445 1445 1445 1445 1445 1445 1446 1446 1446 1445 1444 1444 1443 1442 1440 1438 1436 1434 1433 1432 1430 1428 1426 1424 1421
1435 1435 1436 1437 1437 1438 1438 1439 1439 1439 1439 1440 1440 1441 1441 1442 1442 1442 1441 1441 1442 1442 1442 1441 1440 1440 1438 1437 1436 1434 1432 1431 1429 1427 1425 1423 1421 1419
1431 1431 1431 1432 1432 1433 1434 1434 1435 1435 1436 1436 1437 1437 1437 1438 1438 1438 1438 1438 1438 1437 1437 1437 1437 1436 1435 1434 1433 1431 1430 1428 1427 1425 1422 1420 1419 1417
1427 1426 1427 1427 1428 1428 1429 1430 1431 1432 1432 1433 1433 1433 1434 1434 1434 1434 1435 1435 1435 1435 1434 1434 1433 1432 1432 1431 1431 1428 1427 1426 1424 1422 1420 1417 1415 1414
1422 1422 1422 1423 1424 1424 1425 1426 1427 1428 1429 1429 1430 1430 1431 1431 1431 1431 1431 1431 1431 1431 1432 1431 1430 1429 1428 1427 1427 1427 1425 1423 1421 1420 1418 1415 1413 1411
1418 1418 1418 1419 1420 1420 1421 1422 1423 1424 1425 1425 1426 1426 1427 1427 1427 1427 1427 1428 1428 1428 1428 1428 1428 1427 1426 1426 1424 1423 1423 1421 1419 1417 1415 1413 1411 1410
1413 1414 1414 1415 1416 1416 1417 1418 1419 1420 1421 1421 1422 1422 1423 1423 1423 1424 1424 1425 1425 1425 1425 1425 1425 1425 1424 1423 1422 1420 1419 1419 1417 1415 1413 1410 1408 1406
1409 1410 1411 1411 1412 1412 1413 1414 1415 1416 1417 1417 1418 1419 1419 1420 1420 1420 1421 1421 1421 1422 1422 1422 1422 1422 1421 1420 1418 1417 1416 1416 1415 1413 1411 1410 1408 1404
1405 1406 1407 1407 1408 1409 1410 1410 1411 1412 1413 1413 1414 1415 1415 1416 1416 1417 1417 1418 1418 1418 1418 1418 1418 1418 1418 1417 1416 1415 1414 1413 1411 1410 1409 1408 1406 1404